Location: Newark
(48.1333°N, 17.1000°E)
Time: 21:20:00
(UTC+00:00)

N. Korean satellite - Visible Passes

Search period start: 24 January 2020 00:00
Search period end: 03 February 2020 00:00
Orbit: 454 x 507 km, 97.2° (Epoch: 24 January)

Date Brightness Start Highest point End Pass type
(mag) Time Alt. Az. Time Alt. Az. Time Alt. Az.
24 Jan 7.1 04:35:32 10° NNE 04:39:02 59° E 04:42:35 10° S visible
24 Jan 9.7 16:49:03 10° SW 16:51:13 16° W 16:53:24 10° NW visible
25 Jan 8.6 04:10:18 10° NNE 04:13:27 29° E 04:16:38 10° SSE visible
25 Jan 7.8 05:43:55 10° NNW 05:46:43 22° WNW 05:49:32 10° WSW visible
25 Jan 8.7 16:22:29 10° SSW 16:25:32 30° W 16:28:37 10° NNW visible
26 Jan 9.7 03:45:32 10° NE 03:47:47 16° E 03:50:03 10° SE visible
26 Jan 6.9 05:17:59 10° N 05:21:22 41° WNW 05:24:45 10° SW visible
27 Jan 6.4 04:52:20 10° NNE 04:55:55 84° W 04:59:32 10° SSW visible
27 Jan 10.4 17:07:56 10° W 17:08:14 10° W 17:08:33 10° W visible
28 Jan 7.6 04:26:55 10° NNE 04:30:24 47° E 04:33:54 10° S visible
28 Jan 9.6 16:39:57 10° SW 16:42:29 20° W 16:45:04 10° NW visible
29 Jan 9.0 04:01:47 10° NE 04:04:47 24° E 04:07:47 10° SSE visible
29 Jan 7.5 05:35:05 10° N 05:38:08 27° WNW 05:41:15 10° SW visible
29 Jan 8.2 16:13:37 10° SSW 16:16:50 38° W 16:20:06 10° NNW visible
30 Jan 10.0 03:37:20 10° ENE 03:39:05 13° E 03:40:50 10° ESE visible
30 Jan 6.7 05:09:14 10° N 05:12:46 52° WNW 05:16:18 10° SSW visible
31 Jan 6.7 04:43:39 10° NNE 04:47:16 77° E 04:50:56 10° S visible
31 Jan 10.0 16:57:51 10° WSW 16:59:29 13° W 17:01:07 10° WNW visible
01 Feb 8.1 04:18:19 10° NNE 04:21:43 37° E 04:25:09 10° SSE visible
01 Feb 9.2 16:30:54 10° SSW 16:33:45 24° W 16:36:39 10° NW visible
02 Feb 9.4 03:53:20 10° NE 03:56:05 20° E 03:58:50 10° SE visible
02 Feb 7.3 05:26:15 10° N 05:29:32 33° WNW 05:32:51 10° SW visible
